Time,TemperatureF,DewpointF,PressureIn,WindDirection,WindDirectionDegrees,WindSpeedMPH,WindSpeedGustMPH,Humidity,HourlyPrecipIn,Conditions,Clouds,dailyrainin,SoftwareType,DateUTC
2013-02-05 00:00:00,7.3,-15.1,28.88,NNE,17,0.0,0.0,34,0.00,,OVC110,0.00,VWS V14.01,2013-02-05 06:00:00,
2013-02-05 00:05:00,7.3,-15.1,28.88,NNE,17,0.0,0.0,34,0.00,,OVC060,0.00,VWS V14.01,2013-02-05 06:05:00,
2013-02-05 00:10:00,7.3,-15.1,28.88,NNE,17,0.0,0.0,34,0.00,,OVC060,0.00,VWS V14.01,2013-02-05 06:10:00,
2013-02-05 00:15:00,7.5,-15.0,28.88,NNE,17,0.0,0.0,34,0.00,,OVC060,0.00,VWS V14.01,2013-02-05 06:15:00,
2013-02-05 00:20:00,7.5,-15.0,28.85,NNE,17,0.0,0.0,34,0.00,,OVC060,0.00,VWS V14.01,2013-02-05 06:20:00,
2013-02-05 00:25:00,7.5,-15.0,28.85,NNE,17,0.0,0.0,34,0.00,,OVC060,0.00,VWS V14.01,2013-02-05 06:25:00,
2013-02-05 00:30:00,7.7,-14.8,28.85,NNE,17,0.0,0.0,34,0.00,,OVC060,0.00,VWS V14.01,2013-02-05 06:30:00,
2013-02-05 00:35:00,7.9,-14.7,28.85,NNE,17,0.0,0.0,34,0.00,,OVC060,0.00,VWS V14.01,2013-02-05 06:35:00,
2013-02-05 00:40:00,8.0,-14.5,28.85,NNE,17,0.0,0.0,34,0.00,,OVC060,0.00,VWS V14.01,2013-02-05 06:40:00,
2013-02-05 00:45:00,8.2,-14.4,28.85,NNE,17,0.0,0.0,34,0.00,,OVC060,0.00,VWS V14.01,2013-02-05 06:45:00,
2013-02-05 00:50:00,8.4,-14.2,28.82,NNE,17,0.0,0.0,34,0.00,,OVC060,0.00,VWS V14.01,2013-02-05 06:50:00,
2013-02-05 00:55:00,8.6,-14.0,28.82,NNE,17,0.0,0.0,34,0.00,,OVC060,0.00,VWS V14.01,2013-02-05 06:55:00,
2013-02-05 01:00:00,8.8,-13.9,28.82,NNE,17,0.0,0.0,34,0.00,,,0.00,VWS V14.01,2013-02-05 07:00:00,
2013-02-05 01:05:00,8.9,-13.7,28.82,NNE,17,0.0,0.0,34,0.00,,,0.00,VWS V14.01,2013-02-05 07:05:00,
2013-02-05 01:10:00,8.9,-13.7,28.82,NNE,17,0.0,0.0,34,0.00,,,0.00,VWS V14.01,2013-02-05 07:10:00,
2013-02-05 01:15:00,9.1,-13.5,28.82,NNE,17,0.0,0.0,34,0.00,,,0.00,VWS V14.01,2013-02-05 07:15:00,
2013-02-05 01:20:00,9.1,-13.5,28.79,NNE,17,0.0,0.0,34,0.00,,,0.00,VWS V14.01,2013-02-05 07:20:00,
2013-02-05 01:25:00,9.1,-13.5,28.79,NNE,17,0.0,0.0,34,0.00,,,0.00,VWS V14.01,2013-02-05 07:25:00,
2013-02-05 01:30:00,9.3,-13.4,28.79,NNE,17,0.0,0.0,34,0.00,,,0.00,VWS V14.01,2013-02-05 07:30:00,
2013-02-05 01:35:00,9.5,-13.2,28.79,NNE,17,0.0,0.0,34,0.00,,,0.00,VWS V14.01,2013-02-05 07:35:00,
2013-02-05 01:40:00,9.5,-13.2,28.79,NNE,17,0.0,0.0,34,0.00,,,0.00,VWS V14.01,2013-02-05 07:40:00,
2013-02-05 01:45:00,9.7,-13.1,28.79,NNE,17,0.0,0.0,34,0.00,,,0.00,VWS V14.01,2013-02-05 07:45:00,
2013-02-05 01:50:00,9.7,-13.1,28.79,NNE,17,0.0,0.0,34,0.00,,,0.00,VWS V14.01,2013-02-05 07:50:00,
2013-02-05 01:55:00,9.7,-13.1,28.79,NNE,17,0.0,0.0,34,0.00,,,0.00,VWS V14.01,2013-02-05 07:55:00,
2013-02-05 02:00:00,9.7,-13.1,28.79,NNE,17,0.0,0.0,34,0.00,,,0.00,VWS V14.01,2013-02-05 08:00:00,
2013-02-05 02:05:00,9.5,-13.2,28.79,NNE,17,0.0,0.0,34,0.00,,,0.00,VWS V14.01,2013-02-05 08:05:00,
2013-02-05 02:10:00,9.5,-13.2,28.79,NNE,17,0.0,0.0,34,0.00,,,0.00,VWS V14.01,2013-02-05 08:10:00,
2013-02-05 02:15:00,9.5,-13.2,28.79,NNE,17,0.0,0.0,34,0.00,,,0.00,VWS V14.01,2013-02-05 08:15:00,
2013-02-05 02:20:00,9.5,-13.2,28.79,NNE,17,0.0,0.0,34,0.00,,,0.00,VWS V14.01,2013-02-05 08:20:00,
2013-02-05 02:25:00,9.5,-13.2,28.79,NNE,17,0.0,0.0,34,0.00,,,0.00,VWS V14.01,2013-02-05 08:25:00,
2013-02-05 02:30:00,9.7,-13.1,28.79,NNE,17,0.0,0.0,34,0.00,,,0.00,VWS V14.01,2013-02-05 08:30:00,
2013-02-05 02:35:00,9.7,-13.1,28.76,NNE,17,0.0,0.0,34,0.00,,,0.00,VWS V14.01,2013-02-05 08:35:00,
2013-02-05 02:40:00,9.7,-13.1,28.76,NNE,17,0.0,0.0,34,0.00,,,0.00,VWS V14.01,2013-02-05 08:40:00,
2013-02-05 02:45:00,9.8,-12.9,28.76,NNE,17,0.0,0.0,34,0.00,,,0.00,VWS V14.01,2013-02-05 08:45:00,
2013-02-05 02:50:00,10.0,-12.7,28.76,NNE,17,0.0,0.0,34,0.00,,,0.00,VWS V14.01,2013-02-05 08:50:00,
2013-02-05 02:55:00,10.0,-12.7,28.76,NNE,17,0.0,0.0,34,0.00,,,0.00,VWS V14.01,2013-02-05 08:55:00,
2013-02-05 03:00:00,10.2,-12.6,28.76,NNE,17,0.0,0.0,34,0.00,,OVC030,0.00,VWS V14.01,2013-02-05 09:00:00,
2013-02-05 03:05:00,10.4,-12.4,28.76,NNE,17,0.0,0.0,34,0.00,,OVC030,0.00,VWS V14.01,2013-02-05 09:05:00,
2013-02-05 03:10:00,10.6,-12.3,28.76,NNE,17,0.0,0.0,34,0.00,,OVC030,0.00,VWS V14.01,2013-02-05 09:10:00,
2013-02-05 03:15:00,10.7,-12.1,28.76,NNE,17,0.0,0.0,34,0.00,,OVC030,0.00,VWS V14.01,2013-02-05 09:15:00,
2013-02-05 03:20:00,10.9,-11.9,28.76,NNE,17,0.0,0.0,34,0.00,,OVC030,0.00,VWS V14.01,2013-02-05 09:20:00,
2013-02-05 03:25:00,10.9,-11.9,28.76,NNE,17,0.0,0.0,34,0.00,,OVC030,0.00,VWS V14.01,2013-02-05 09:25:00,
2013-02-05 03:30:00,11.1,-11.8,28.76,NNE,17,0.0,0.0,34,0.00,,OVC030,0.00,VWS V14.01,2013-02-05 09:30:00,
2013-02-05 03:35:00,11.1,-11.8,28.76,NNE,17,0.0,0.0,34,0.00,,OVC030,0.00,VWS V14.01,2013-02-05 09:35:00,
2013-02-05 03:40:00,11.3,-11.6,28.76,NNE,17,0.0,0.0,34,0.00,,,0.00,VWS V14.01,2013-02-05 09:40:00,
2013-02-05 03:45:00,11.5,-11.5,28.76,NNE,17,0.0,0.0,34,0.00,,,0.00,VWS V14.01,2013-02-05 09:45:00,
2013-02-05 03:50:00,11.5,-11.5,28.73,NNE,17,0.0,0.0,34,0.00,,,0.00,VWS V14.01,2013-02-05 09:50:00,
2013-02-05 03:55:00,11.6,-11.3,28.73,NNE,17,0.0,0.0,34,0.00,,,0.00,VWS V14.01,2013-02-05 09:55:00,
2013-02-05 04:00:00,11.6,-11.3,28.73,NNE,17,0.0,0.0,34,0.00,,,0.00,VWS V14.01,2013-02-05 10:00:00,
2013-02-05 04:05:00,11.8,-11.1,28.73,NNE,17,0.0,0.0,34,0.00,,,0.00,VWS V14.01,2013-02-05 10:05:00,
2013-02-05 04:10:00,12.0,0.8,28.73,NNE,17,0.0,0.0,60,0.00,,OVC026,0.00,VWS V14.01,2013-02-05 10:10:00,
2013-02-05 04:15:00,12.2,0.6,28.73,NNE,17,0.0,0.0,59,0.00,,OVC026,0.00,VWS V14.01,2013-02-05 10:15:00,
2013-02-05 04:20:00,12.2,1.0,28.73,NNE,17,0.0,0.0,60,0.00,,OVC026,0.00,VWS V14.01,2013-02-05 10:20:00,
2013-02-05 04:25:00,12.4,1.1,28.73,NNE,17,0.0,0.0,60,0.00,,OVC026,0.00,VWS V14.01,2013-02-05 10:25:00,
2013-02-05 04:30:00,12.5,1.3,28.73,NNE,17,0.0,0.0,60,0.00,,OVC026,0.00,VWS V14.01,2013-02-05 10:30:00,
2013-02-05 04:35:00,12.9,2.0,28.73,NNE,17,0.0,0.0,61,0.00,,OVC026,0.00,VWS V14.01,2013-02-05 10:35:00,
2013-02-05 04:40:00,13.3,2.3,28.73,NNE,17,0.0,0.0,61,0.00,,OVC026,0.00,VWS V14.01,2013-02-05 10:40:00,
2013-02-05 04:45:00,13.8,3.2,28.73,NNE,17,0.0,0.0,62,0.00,,OVC026,0.00,VWS V14.01,2013-02-05 10:45:00,
2013-02-05 04:50:00,14.2,3.9,28.73,NNE,17,0.0,0.0,63,0.00,,OVC026,0.00,VWS V14.01,2013-02-05 10:50:00,
2013-02-05 04:55:00,14.7,4.8,28.73,NNE,17,0.0,0.0,64,0.00,,OVC026,0.00,VWS V14.01,2013-02-05 10:55:00,
2013-02-05 05:00:00,15.2,5.3,28.73,NNE,17,0.0,0.0,64,0.00,,OVC016,0.00,VWS V14.01,2013-02-05 11:00:00,
2013-02-05 05:05:00,15.6,5.6,28.73,NNE,17,0.0,0.0,64,0.00,,OVC016,0.00,VWS V14.01,2013-02-05 11:05:00,
2013-02-05 05:10:00,16.0,5.9,28.73,NNE,17,0.0,0.0,64,0.00,,OVC016,0.00,VWS V14.01,2013-02-05 11:10:00,
2013-02-05 05:15:00,16.3,6.3,28.73,NNE,17,0.0,0.0,64,0.00,,OVC016,0.00,VWS V14.01,2013-02-05 11:15:00,
2013-02-05 05:20:00,16.5,6.5,28.73,NNE,17,0.0,0.0,64,0.00,,OVC016,0.00,VWS V14.01,2013-02-05 11:20:00,
2013-02-05 05:25:00,16.5,6.5,28.73,NNE,17,0.0,0.0,64,0.00,,OVC016,0.00,VWS V14.01,2013-02-05 11:25:00,
2013-02-05 05:30:00,16.7,6.6,28.73,NNE,17,0.0,0.0,64,0.00,,OVC014,0.00,VWS V14.01,2013-02-05 11:30:00,
2013-02-05 05:35:00,17.0,7.0,28.73,NNE,17,0.0,0.0,64,0.00,,OVC014,0.00,VWS V14.01,2013-02-05 11:35:00,
2013-02-05 05:40:00,17.0,7.0,28.73,NNE,17,0.0,0.0,64,0.00,,OVC014,0.00,VWS V14.01,2013-02-05 11:40:00,
2013-02-05 05:45:00,17.2,7.2,28.73,NNE,17,0.0,0.0,64,0.00,,OVC014,0.00,VWS V14.01,2013-02-05 11:45:00,
2013-02-05 05:50:00,17.2,7.2,28.73,NNE,17,0.0,0.0,64,0.00,,OVC014,0.00,VWS V14.01,2013-02-05 11:50:00,
2013-02-05 05:55:00,17.2,7.2,28.73,NNE,17,0.0,0.0,64,0.00,,OVC014,0.00,VWS V14.01,2013-02-05 11:55:00,
2013-02-05 06:00:00,17.2,6.8,28.73,NNE,17,0.0,0.0,63,0.00,,,0.00,VWS V14.01,2013-02-05 12:00:00,
2013-02-05 06:05:00,17.4,7.0,28.70,NNE,17,0.0,0.0,63,0.00,,,0.00,VWS V14.01,2013-02-05 12:05:00,
2013-02-05 06:10:00,17.4,7.0,28.70,NNE,17,0.0,0.0,63,0.00,,,0.00,VWS V14.01,2013-02-05 12:10:00,
2013-02-05 06:15:00,17.4,7.0,28.70,NNE,17,0.0,0.0,63,0.00,,,0.00,VWS V14.01,2013-02-05 12:15:00,
2013-02-05 06:20:00,17.4,7.0,28.70,NNE,17,0.0,0.0,63,0.00,,,0.00,VWS V14.01,2013-02-05 12:20:00,
2013-02-05 06:25:00,17.4,7.0,28.70,NNE,17,0.0,0.0,63,0.00,,,0.00,VWS V14.01,2013-02-05 12:25:00,
2013-02-05 06:30:00,17.4,7.0,28.70,NNE,17,0.0,0.0,63,0.00,,,0.00,VWS V14.01,2013-02-05 12:30:00,
2013-02-05 06:35:00,17.6,7.2,28.70,NNE,17,0.0,0.0,63,0.00,,,0.00,VWS V14.01,2013-02-05 12:35:00,
2013-02-05 06:40:00,17.8,7.7,28.70,NNE,17,0.0,0.0,64,0.00,,,0.00,VWS V14.01,2013-02-05 12:40:00,
2013-02-05 06:45:00,17.8,7.7,28.70,NNE,17,0.0,0.0,64,0.00,,,0.00,VWS V14.01,2013-02-05 12:45:00,
2013-02-05 06:50:00,17.9,7.8,28.70,NNE,17,0.0,0.0,64,0.00,,,0.00,VWS V14.01,2013-02-05 12:50:00,
2013-02-05 06:55:00,17.9,7.8,28.70,NNE,17,0.0,0.0,64,0.00,,,0.00,VWS V14.01,2013-02-05 12:55:00,
2013-02-05 07:00:00,18.1,8.0,28.70,NNE,17,0.0,0.0,64,0.00,,,0.00,VWS V14.01,2013-02-05 13:00:00,
2013-02-05 07:05:00,18.1,8.4,28.70,NNE,17,0.0,0.0,65,0.00,,,0.00,VWS V14.01,2013-02-05 13:05:00,
2013-02-05 07:10:00,18.3,8.5,28.70,NNE,17,0.0,0.0,65,0.00,,OVC085,0.00,VWS V14.01,2013-02-05 13:10:00,
2013-02-05 07:15:00,18.3,8.5,28.70,NNE,17,0.0,0.0,65,0.00,,OVC085,0.00,VWS V14.01,2013-02-05 13:15:00,
2013-02-05 07:20:00,18.3,8.5,28.70,NNE,17,0.0,0.0,65,0.00,,OVC085,0.00,VWS V14.01,2013-02-05 13:20:00,
2013-02-05 07:26:00,18.5,9.0,28.70,NNE,17,0.0,0.0,66,0.00,,OVC085,0.00,VWS V14.01,2013-02-05 13:26:00,
2013-02-05 07:31:00,18.7,9.2,28.70,NNE,17,0.0,0.0,66,0.00,,OVC085,0.00,VWS V14.01,2013-02-05 13:31:00,
2013-02-05 07:36:00,18.7,9.2,28.70,NNE,17,0.0,0.0,66,0.00,,OVC085,0.00,VWS V14.01,2013-02-05 13:36:00,
2013-02-05 07:41:00,18.8,9.4,28.70,NNE,17,0.0,0.0,66,0.00,,OVC085,0.00,VWS V14.01,2013-02-05 13:41:00,
2013-02-05 07:46:00,18.8,9.4,28.70,NNE,17,0.0,0.0,66,0.00,,OVC085,0.00,VWS V14.01,2013-02-05 13:46:00,
2013-02-05 07:51:00,18.8,9.4,28.70,NNE,17,0.0,0.0,66,0.00,,OVC013,0.00,VWS V14.01,2013-02-05 13:51:00,
2013-02-05 07:56:00,19.0,9.9,28.70,NNE,17,0.0,0.0,67,0.00,,OVC013,0.00,VWS V14.01,2013-02-05 13:56:00,
2013-02-05 08:01:00,19.0,9.9,28.70,NNE,17,0.0,0.0,67,0.00,,,0.00,VWS V14.01,2013-02-05 14:01:00,
2013-02-05 08:06:00,19.2,10.1,28.73,NNE,17,0.0,0.0,67,0.00,,,0.00,VWS V14.01,2013-02-05 14:06:00,
2013-02-05 08:11:00,19.2,10.1,28.73,NNE,17,0.0,0.0,67,0.00,,,0.00,VWS V14.01,2013-02-05 14:11:00,
2013-02-05 08:16:00,19.4,10.2,28.73,NNE,17,0.0,0.0,67,0.00,,,0.00,VWS V14.01,2013-02-05 14:16:00,
2013-02-05 08:21:00,19.6,10.4,28.73,NNE,17,0.0,0.0,67,0.00,,,0.00,VWS V14.01,2013-02-05 14:21:00,
2013-02-05 08:26:00,19.7,10.6,28.73,NNE,17,0.0,0.0,67,0.00,,,0.00,VWS V14.01,2013-02-05 14:26:00,
2013-02-05 08:31:00,19.9,10.7,28.73,NNE,17,0.0,0.0,67,0.00,,,0.00,VWS V14.01,2013-02-05 14:31:00,
2013-02-05 08:36:00,19.9,10.7,28.73,NNE,17,0.0,0.0,67,0.00,,,0.00,VWS V14.01,2013-02-05 14:36:00,
2013-02-05 08:41:00,20.1,11.2,28.73,NNE,17,0.0,0.0,68,0.00,,,0.00,VWS V14.01,2013-02-05 14:41:00,
2013-02-05 08:46:00,20.3,11.4,28.73,NNE,17,0.0,0.0,68,0.00,,,0.00,VWS V14.01,2013-02-05 14:46:00,
2013-02-05 08:51:00,20.5,11.6,28.73,NNE,17,0.0,0.0,68,0.00,,,0.00,VWS V14.01,2013-02-05 14:51:00,
2013-02-05 08:56:00,20.8,11.9,28.73,NNE,17,0.0,0.0,68,0.00,,,0.00,VWS V14.01,2013-02-05 14:56:00,
2013-02-05 09:01:00,21.0,12.1,28.73,NNE,17,0.0,0.0,68,0.00,,,0.00,VWS V14.01,2013-02-05 15:01:00,
2013-02-05 09:06:00,21.4,12.5,28.73,NNE,17,0.0,0.0,68,0.00,,,0.00,VWS V14.01,2013-02-05 15:06:00,
2013-02-05 09:11:00,21.7,13.1,28.73,NNE,17,0.0,0.0,69,0.00,,,0.00,VWS V14.01,2013-02-05 15:11:00,
2013-02-05 09:16:00,22.3,13.6,28.73,NNE,17,0.0,0.0,69,0.00,,,0.00,VWS V14.01,2013-02-05 15:16:00,
2013-02-05 09:21:00,22.4,13.8,28.73,NNE,17,0.0,0.0,69,0.00,,,0.00,VWS V14.01,2013-02-05 15:21:00,
2013-02-05 09:26:00,22.6,14.0,28.73,NNE,17,0.0,0.0,69,0.00,,,0.00,VWS V14.01,2013-02-05 15:26:00,
2013-02-05 09:31:00,22.8,14.2,28.73,NNE,17,0.0,0.0,69,0.00,,,0.00,VWS V14.01,2013-02-05 15:31:00,
2013-02-05 09:36:00,22.8,14.2,28.76,NNE,17,0.0,0.0,69,0.00,,,0.00,VWS V14.01,2013-02-05 15:36:00,
2013-02-05 09:41:00,23.0,14.0,28.76,NNE,17,0.0,0.0,68,0.00,,,0.00,VWS V14.01,2013-02-05 15:41:00,
2013-02-05 09:46:00,23.2,14.2,28.76,NNE,17,0.0,0.0,68,0.00,,,0.00,VWS V14.01,2013-02-05 15:46:00,
2013-02-05 09:51:00,23.3,14.4,28.76,NNE,17,0.0,0.0,68,0.00,,,0.00,VWS V14.01,2013-02-05 15:51:00,
2013-02-05 09:56:00,23.5,14.5,28.76,NNE,17,0.0,0.0,68,0.00,,,0.00,VWS V14.01,2013-02-05 15:56:00,
2013-02-05 10:01:00,23.7,14.4,28.76,NNE,17,0.0,0.0,67,0.00,,,0.00,VWS V14.01,2013-02-05 16:01:00,
2013-02-05 10:06:00,23.7,14.0,28.76,NNE,17,0.0,0.0,66,0.00,,,0.00,VWS V14.01,2013-02-05 16:06:00,
2013-02-05 10:11:00,23.7,14.0,28.76,NNE,17,0.0,0.0,66,0.00,,,0.00,VWS V14.01,2013-02-05 16:11:00,
2013-02-05 10:16:00,24.1,14.7,28.76,NNE,17,0.0,0.0,67,0.00,,,0.00,VWS V14.01,2013-02-05 16:16:00,
2013-02-05 10:21:00,24.1,14.4,28.76,NNE,17,0.0,0.0,66,0.00,,,0.00,VWS V14.01,2013-02-05 16:21:00,
2013-02-05 10:26:00,24.2,14.5,28.76,NNE,17,0.0,0.0,66,0.00,,,0.00,VWS V14.01,2013-02-05 16:26:00,
2013-02-05 10:31:00,24.2,14.5,28.76,NNE,17,0.0,0.0,66,0.00,,,0.00,VWS V14.01,2013-02-05 16:31:00,
2013-02-05 10:36:00,24.2,14.5,28.79,NNE,17,0.0,0.0,66,0.00,,,0.00,VWS V14.01,2013-02-05 16:36:00,
2013-02-05 10:41:00,24.2,14.5,28.79,NNE,17,0.0,0.0,66,0.00,,,0.00,VWS V14.01,2013-02-05 16:41:00,
2013-02-05 10:46:00,24.2,14.5,28.79,NNE,17,0.0,0.0,66,0.00,,,0.00,VWS V14.01,2013-02-05 16:46:00,
2013-02-05 10:51:00,24.4,14.7,28.79,NNE,17,0.0,0.0,66,0.00,,,0.00,VWS V14.01,2013-02-05 16:51:00,
2013-02-05 10:56:00,24.6,14.9,28.79,NNE,17,0.0,0.0,66,0.00,,,0.00,VWS V14.01,2013-02-05 16:56:00,
2013-02-05 11:01:00,24.8,14.7,28.79,NNE,17,0.0,0.0,65,0.00,,OVC011,0.00,VWS V14.01,2013-02-05 17:01:00,
2013-02-05 11:06:00,24.8,14.7,28.79,NNE,17,0.0,0.0,65,0.00,,OVC011,0.00,VWS V14.01,2013-02-05 17:06:00,
2013-02-05 11:11:00,24.8,14.4,28.79,NNE,17,0.0,0.0,64,0.00,,OVC011,0.00,VWS V14.01,2013-02-05 17:11:00,
2013-02-05 11:16:00,24.6,13.8,28.79,NNE,17,0.0,0.0,63,0.00,,OVC011,0.00,VWS V14.01,2013-02-05 17:16:00,
2013-02-05 11:21:00,24.6,13.4,28.82,NNE,17,0.0,0.0,62,0.00,,OVC011,0.00,VWS V14.01,2013-02-05 17:21:00,
2013-02-05 11:26:00,24.8,13.3,28.82,NNE,17,0.0,0.0,61,0.00,,OVC011,0.00,VWS V14.01,2013-02-05 17:26:00,
2013-02-05 11:31:00,24.8,12.9,28.82,NNE,17,0.0,0.0,60,0.00,,OVC011,0.00,VWS V14.01,2013-02-05 17:31:00,
2013-02-05 11:36:00,24.8,12.9,28.82,NNE,17,0.0,0.0,60,0.00,,OVC011,0.00,VWS V14.01,2013-02-05 17:36:00,
2013-02-05 11:41:00,24.8,12.1,28.82,NNE,17,0.0,0.0,58,0.00,,OVC011,0.00,VWS V14.01,2013-02-05 17:41:00,
2013-02-05 11:46:00,24.4,11.4,28.82,NNE,17,0.0,0.0,57,0.00,,OVC011,0.00,VWS V14.01,2013-02-05 17:46:00,
2013-02-05 11:51:00,24.2,11.2,28.82,NNE,17,0.0,0.0,57,0.00,,OVC011,0.00,VWS V14.01,2013-02-05 17:51:00,
2013-02-05 11:56:00,24.4,11.4,28.82,NNE,17,0.0,0.0,57,0.00,,OVC011,0.00,VWS V14.01,2013-02-05 17:56:00,
2013-02-05 12:01:00,24.6,11.6,28.82,NNE,17,0.0,0.0,57,0.00,,OVC013,0.00,VWS V14.01,2013-02-05 18:01:00,
2013-02-05 12:06:00,24.8,11.3,28.82,NNE,17,0.0,0.0,56,0.00,,OVC013,0.00,VWS V14.01,2013-02-05 18:06:00,
2013-02-05 12:11:00,24.8,10.9,28.82,NNE,17,0.0,0.0,55,0.00,,OVC013,0.00,VWS V14.01,2013-02-05 18:11:00,
2013-02-05 12:16:00,24.6,10.8,28.82,NNE,17,0.0,0.0,55,0.00,,OVC013,0.00,VWS V14.01,2013-02-05 18:16:00,
2013-02-05 12:21:00,24.6,10.8,28.82,NNE,17,0.0,0.0,55,0.00,,OVC013,0.00,VWS V14.01,2013-02-05 18:21:00,
2013-02-05 12:26:00,24.6,10.8,28.82,NNE,17,0.0,0.0,55,0.00,,OVC013,0.00,VWS V14.01,2013-02-05 18:26:00,
2013-02-05 12:31:00,24.6,10.8,28.82,NNE,17,0.0,0.0,55,0.00,,OVC021,0.00,VWS V14.01,2013-02-05 18:31:00,
2013-02-05 12:37:00,24.8,10.5,28.85,NNE,17,0.0,0.0,54,0.00,,OVC021,0.00,VWS V14.01,2013-02-05 18:37:00,
2013-02-05 12:42:00,24.6,10.3,28.85,NNE,17,0.0,0.0,54,0.00,,OVC021,0.00,VWS V14.01,2013-02-05 18:42:00,
2013-02-05 12:47:00,24.4,10.2,28.85,NNE,17,0.0,0.0,54,0.00,,OVC021,0.00,VWS V14.01,2013-02-05 18:47:00,
2013-02-05 12:52:00,24.4,9.8,28.85,NNE,17,0.0,0.0,53,0.00,,OVC021,0.00,VWS V14.01,2013-02-05 18:52:00,
2013-02-05 12:57:00,24.4,9.8,28.85,NNE,17,0.0,0.0,53,0.00,,OVC021,0.00,VWS V14.01,2013-02-05 18:57:00,
2013-02-05 13:02:00,24.4,9.3,28.85,NNE,17,0.0,0.0,52,0.00,,OVC021,0.00,VWS V14.01,2013-02-05 19:02:00,
2013-02-05 13:07:00,24.6,9.5,28.85,NNE,17,0.0,0.0,52,0.00,,OVC021,0.00,VWS V14.01,2013-02-05 19:07:00,
2013-02-05 13:12:00,24.6,9.1,28.85,NNE,17,0.0,0.0,51,0.00,,OVC021,0.00,VWS V14.01,2013-02-05 19:12:00,
2013-02-05 13:17:00,25.0,9.0,28.85,NNE,17,0.0,0.0,50,0.00,,OVC021,0.00,VWS V14.01,2013-02-05 19:17:00,
2013-02-05 13:22:00,25.0,8.5,28.85,NNE,17,0.0,0.0,49,0.00,,OVC021,0.00,VWS V14.01,2013-02-05 19:22:00,
2013-02-05 13:27:00,25.0,8.1,28.85,NNE,17,0.0,0.0,48,0.00,,OVC021,0.00,VWS V14.01,2013-02-05 19:27:00,
2013-02-05 13:32:00,25.0,8.1,28.85,NNE,17,0.0,0.0,48,0.00,,OVC021,0.00,VWS V14.01,2013-02-05 19:32:00,
2013-02-05 13:37:00,25.0,7.6,28.88,NNE,17,0.0,0.0,47,0.00,,OVC021,0.00,VWS V14.01,2013-02-05 19:37:00,
2013-02-05 13:42:00,24.6,6.8,28.88,NNE,17,0.0,0.0,46,0.00,,OVC021,0.00,VWS V14.01,2013-02-05 19:42:00,
2013-02-05 13:47:00,24.4,6.1,28.88,NNE,17,0.0,0.0,45,0.00,,OVC021,0.00,VWS V14.01,2013-02-05 19:47:00,
2013-02-05 13:52:00,24.8,6.5,28.88,NNE,17,0.0,0.0,45,0.00,,OVC021,0.00,VWS V14.01,2013-02-05 19:52:00,
2013-02-05 13:57:00,24.6,5.8,28.88,NNE,17,0.0,0.0,44,0.00,,OVC021,0.00,VWS V14.01,2013-02-05 19:57:00,
2013-02-05 14:02:00,24.6,5.8,28.88,NNE,17,0.0,0.0,44,0.00,,OVC021,0.00,VWS V14.01,2013-02-05 20:02:00,
2013-02-05 14:07:00,24.6,5.3,28.88,NNE,17,0.0,0.0,43,0.00,,OVC021,0.00,VWS V14.01,2013-02-05 20:07:00,
2013-02-05 14:12:00,24.4,5.2,28.88,NNE,17,0.0,0.0,43,0.00,,OVC021,0.00,VWS V14.01,2013-02-05 20:12:00,
2013-02-05 14:17:00,24.4,5.2,28.88,NNE,17,0.0,0.0,43,0.00,,OVC021,0.00,VWS V14.01,2013-02-05 20:17:00,
2013-02-05 14:22:00,24.6,5.3,28.88,NNE,17,0.0,0.0,43,0.00,,OVC021,0.00,VWS V14.01,2013-02-05 20:22:00,
2013-02-05 14:27:00,24.8,5.5,28.88,NNE,17,0.0,0.0,43,0.00,,OVC021,0.00,VWS V14.01,2013-02-05 20:27:00,
2013-02-05 14:32:00,25.0,5.1,28.88,NNE,17,0.0,0.0,42,0.00,,SCT023,0.00,VWS V14.01,2013-02-05 20:32:00,
2013-02-05 14:37:00,25.1,5.3,28.91,NNE,17,0.0,0.0,42,0.00,,SCT023,0.00,VWS V14.01,2013-02-05 20:37:00,
2013-02-05 14:42:00,25.5,5.6,28.91,NNE,17,0.0,0.0,42,0.00,,SCT023,0.00,VWS V14.01,2013-02-05 20:42:00,
2013-02-05 14:47:00,25.9,5.9,28.91,NNE,17,0.0,0.0,42,0.00,,SCT023,0.00,VWS V14.01,2013-02-05 20:47:00,
2013-02-05 14:52:00,26.9,6.4,28.91,NNE,17,0.0,0.0,41,0.00,,SCT023,0.00,VWS V14.01,2013-02-05 20:52:00,
2013-02-05 14:57:00,26.9,6.4,28.91,NNE,17,0.0,0.0,41,0.00,,SCT023,0.00,VWS V14.01,2013-02-05 20:57:00,
2013-02-05 15:02:00,26.6,6.1,28.91,NNE,17,0.0,0.0,41,0.00,,FEW025,0.00,VWS V14.01,2013-02-05 21:02:00,
2013-02-05 15:07:00,26.2,5.7,28.91,NNE,17,0.0,0.0,41,0.00,,FEW025,0.00,VWS V14.01,2013-02-05 21:07:00,
2013-02-05 15:12:00,26.0,5.6,28.91,NNE,17,0.0,0.0,41,0.00,,FEW025,0.00,VWS V14.01,2013-02-05 21:12:00,
2013-02-05 15:17:00,25.9,5.4,28.91,NNE,17,0.0,0.0,41,0.00,,FEW025,0.00,VWS V14.01,2013-02-05 21:17:00,
2013-02-05 15:22:00,25.7,4.7,28.91,NNE,17,0.0,0.0,40,0.00,,FEW025,0.00,VWS V14.01,2013-02-05 21:22:00,
2013-02-05 15:27:00,24.8,3.9,28.91,NNE,17,0.0,0.0,40,0.00,,FEW025,0.00,VWS V14.01,2013-02-05 21:27:00,
2013-02-05 15:32:00,24.2,4.0,28.94,NNE,17,0.0,0.0,41,0.00,,FEW025,0.00,VWS V14.01,2013-02-05 21:32:00,
2013-02-05 15:37:00,23.9,3.6,28.94,NNE,17,0.0,0.0,41,0.00,,FEW025,0.00,VWS V14.01,2013-02-05 21:37:00,
2013-02-05 15:42:00,23.7,3.5,28.94,NNE,17,0.0,0.0,41,0.00,,FEW025,0.00,VWS V14.01,2013-02-05 21:42:00,
2013-02-05 15:47:00,23.5,3.8,28.94,NNE,17,0.0,0.0,42,0.00,,FEW025,0.00,VWS V14.01,2013-02-05 21:47:00,
2013-02-05 15:52:00,23.5,3.3,28.94,NNE,17,0.0,0.0,41,0.00,,FEW025,0.00,VWS V14.01,2013-02-05 21:52:00,
2013-02-05 15:57:00,23.2,3.0,28.94,NNE,17,0.0,0.0,41,0.00,,FEW025,0.00,VWS V14.01,2013-02-05 21:57:00,
2013-02-05 16:02:00,23.0,3.3,28.94,NNE,17,0.0,0.0,42,0.00,,CLR,0.00,VWS V14.01,2013-02-05 22:02:00,
2013-02-05 16:08:00,23.0,3.3,28.94,NNE,17,0.0,0.0,42,0.00,,CLR,0.00,VWS V14.01,2013-02-05 22:08:00,
2013-02-05 16:13:00,22.8,3.2,28.94,NNE,17,0.0,0.0,42,0.00,,CLR,0.00,VWS V14.01,2013-02-05 22:13:00,
2013-02-05 16:18:00,22.4,2.8,28.94,NNE,17,0.0,0.0,42,0.00,,CLR,0.00,VWS V14.01,2013-02-05 22:18:00,
2013-02-05 16:23:00,22.4,2.8,28.94,NNE,17,0.0,0.0,42,0.00,,CLR,0.00,VWS V14.01,2013-02-05 22:23:00,
2013-02-05 16:28:00,22.1,2.5,28.94,NNE,17,0.0,0.0,42,0.00,,CLR,0.00,VWS V14.01,2013-02-05 22:28:00,
2013-02-05 16:33:00,21.5,2.0,28.97,NNE,17,0.0,0.0,42,0.00,,CLR,0.00,VWS V14.01,2013-02-05 22:33:00,
2013-02-05 16:38:00,21.4,1.9,28.97,NNE,17,0.0,0.0,42,0.00,,CLR,0.00,VWS V14.01,2013-02-05 22:38:00,
2013-02-05 16:43:00,21.2,1.7,28.97,NNE,17,0.0,0.0,42,0.00,,CLR,0.00,VWS V14.01,2013-02-05 22:43:00,
2013-02-05 16:48:00,20.8,1.4,28.97,NNE,17,0.0,0.0,42,0.00,,CLR,0.00,VWS V14.01,2013-02-05 22:48:00,
2013-02-05 16:53:00,20.6,1.2,28.97,NNE,17,0.0,0.0,42,0.00,,CLR,0.00,VWS V14.01,2013-02-05 22:53:00,
2013-02-05 16:58:00,20.3,0.9,28.97,NNE,17,0.0,0.0,42,0.00,,CLR,0.00,VWS V14.01,2013-02-05 22:58:00,
2013-02-05 17:03:00,19.9,0.5,28.97,NNE,17,0.0,0.0,42,0.00,,CLR,0.00,VWS V14.01,2013-02-05 23:03:00,
2013-02-05 17:08:00,19.7,0.9,28.97,NNE,17,0.0,0.0,43,0.00,,CLR,0.00,VWS V14.01,2013-02-05 23:08:00,
2013-02-05 17:13:00,19.4,0.6,28.97,NNE,17,0.0,0.0,43,0.00,,CLR,0.00,VWS V14.01,2013-02-05 23:13:00,
2013-02-05 17:18:00,19.0,0.2,28.97,NNE,17,0.0,0.0,43,0.00,,CLR,0.00,VWS V14.01,2013-02-05 23:18:00,
2013-02-05 17:23:00,18.5,-0.3,28.97,NNE,17,0.0,0.0,43,0.00,,CLR,0.00,VWS V14.01,2013-02-05 23:23:00,
2013-02-05 17:28:00,18.1,-0.6,28.97,NNE,17,0.0,0.0,43,0.00,,CLR,0.00,VWS V14.01,2013-02-05 23:28:00,
2013-02-05 17:33:00,17.6,-1.1,29.00,NNE,17,0.0,0.0,43,0.00,,CLR,0.00,VWS V14.01,2013-02-05 23:33:00,
2013-02-05 17:38:00,16.7,-1.9,29.00,NNE,17,0.0,0.0,43,0.00,,CLR,0.00,VWS V14.01,2013-02-05 23:38:00,
2013-02-05 17:43:00,15.8,-2.7,29.00,NNE,17,0.0,0.0,43,0.00,,CLR,0.00,VWS V14.01,2013-02-05 23:43:00,
2013-02-05 17:48:00,15.1,-2.9,29.00,NNE,17,0.0,0.0,44,0.00,,CLR,0.00,VWS V14.01,2013-02-05 23:48:00,
2013-02-05 17:53:00,14.3,-3.6,29.00,NNE,17,0.0,0.0,44,0.00,,CLR,0.00,VWS V14.01,2013-02-05 23:53:00,
2013-02-05 17:58:00,13.8,-4.1,29.00,NNE,17,0.0,0.0,44,0.00,,CLR,0.00,VWS V14.01,2013-02-05 23:58:00,
2013-02-05 18:03:00,13.1,-4.7,29.00,NNE,17,0.0,0.0,44,0.00,,CLR,0.00,VWS V14.01,2013-02-06 00:03:00,
2013-02-05 18:08:00,12.5,-5.2,29.00,NNE,17,0.0,0.0,44,0.00,,CLR,0.00,VWS V14.01,2013-02-06 00:08:00,
2013-02-05 18:13:00,12.2,-5.6,29.00,NNE,17,0.0,0.0,44,0.00,,CLR,0.00,VWS V14.01,2013-02-06 00:13:00,
2013-02-05 18:18:00,11.5,-5.8,29.03,NNE,17,0.0,0.0,45,0.00,,CLR,0.00,VWS V14.01,2013-02-06 00:18:00,
2013-02-05 18:23:00,10.7,-6.4,29.03,NNE,17,0.0,0.0,45,0.00,,CLR,0.00,VWS V14.01,2013-02-06 00:23:00,
2013-02-05 18:28:00,10.0,-7.1,29.03,NNE,17,0.0,0.0,45,0.00,,CLR,0.00,VWS V14.01,2013-02-06 00:28:00,
2013-02-05 18:33:00,9.3,-7.7,29.03,NNE,17,0.0,0.0,45,0.00,,CLR,0.00,VWS V14.01,2013-02-06 00:33:00,
2013-02-05 18:38:00,8.6,-8.4,29.03,NNE,17,0.0,0.0,45,0.00,,CLR,0.00,VWS V14.01,2013-02-06 00:38:00,
2013-02-05 18:43:00,7.9,-9.1,29.03,NNE,17,0.0,0.0,45,0.00,,CLR,0.00,VWS V14.01,2013-02-06 00:43:00,
2013-02-05 18:48:00,7.3,-9.6,29.03,NNE,17,0.0,0.0,45,0.00,,CLR,0.00,VWS V14.01,2013-02-06 00:48:00,
2013-02-05 18:53:00,6.8,-10.1,29.03,NNE,17,0.0,0.0,45,0.00,,CLR,0.00,VWS V14.01,2013-02-06 00:53:00,
2013-02-05 18:58:00,6.2,-10.6,29.03,NNE,17,0.0,0.0,45,0.00,,CLR,0.00,VWS V14.01,2013-02-06 00:58:00,
2013-02-05 19:03:00,5.9,-10.9,29.03,NNE,17,0.0,0.0,45,0.00,,CLR,0.00,VWS V14.01,2013-02-06 01:03:00,
2013-02-05 19:08:00,5.5,-11.2,29.03,NNE,17,0.0,0.0,45,0.00,,CLR,0.00,VWS V14.01,2013-02-06 01:08:00,
2013-02-05 19:13:00,5.0,-11.7,29.03,NNE,17,0.0,0.0,45,0.00,,CLR,0.00,VWS V14.01,2013-02-06 01:13:00,
2013-02-05 19:18:00,4.8,-11.9,29.06,NNE,17,0.0,0.0,45,0.00,,CLR,0.00,VWS V14.01,2013-02-06 01:18:00,
2013-02-05 19:23:00,4.3,-12.4,29.06,NNE,17,0.0,0.0,45,0.00,,CLR,0.00,VWS V14.01,2013-02-06 01:23:00,
2013-02-05 19:28:00,4.1,-12.5,29.06,NNE,17,0.0,0.0,45,0.00,,CLR,0.00,VWS V14.01,2013-02-06 01:28:00,
2013-02-05 19:33:00,3.9,-12.7,29.06,NNE,17,0.0,0.0,45,0.00,,CLR,0.00,VWS V14.01,2013-02-06 01:33:00,
2013-02-05 19:38:00,3.5,-13.0,29.06,NNE,17,0.0,0.0,45,0.00,,CLR,0.00,VWS V14.01,2013-02-06 01:38:00,
2013-02-05 19:43:00,3.4,-13.2,29.06,NNE,17,0.0,0.0,45,0.00,,CLR,0.00,VWS V14.01,2013-02-06 01:43:00,
2013-02-05 19:48:00,3.0,-13.5,29.06,NNE,17,0.0,0.0,45,0.00,,CLR,0.00,VWS V14.01,2013-02-06 01:48:00,
2013-02-05 19:53:00,2.5,-14.0,29.06,NNE,17,0.0,0.0,45,0.00,,CLR,0.00,VWS V14.01,2013-02-06 01:53:00,
2013-02-05 19:58:00,2.1,-14.4,29.06,NNE,17,0.0,0.0,45,0.00,,CLR,0.00,VWS V14.01,2013-02-06 01:58:00,
2013-02-05 20:03:00,1.9,-14.5,29.06,NNE,17,0.0,0.0,45,0.00,,CLR,0.00,VWS V14.01,2013-02-06 02:03:00,
2013-02-05 20:08:00,1.4,-15.0,29.06,NNE,17,0.0,0.0,45,0.00,,CLR,0.00,VWS V14.01,2013-02-06 02:08:00,
2013-02-05 20:13:00,1.0,-15.4,29.06,NNE,17,0.0,0.0,45,0.00,,CLR,0.00,VWS V14.01,2013-02-06 02:13:00,
2013-02-05 20:18:00,0.7,-15.7,29.06,NNE,17,0.0,0.0,45,0.00,,CLR,0.00,VWS V14.01,2013-02-06 02:18:00,
2013-02-05 20:23:00,-0.1,-16.3,29.06,NNE,17,0.0,0.0,45,0.00,,CLR,0.00,VWS V14.01,2013-02-06 02:23:00,
2013-02-05 20:28:00,-0.4,-16.7,29.06,NNE,17,0.0,0.0,45,0.00,,CLR,0.00,VWS V14.01,2013-02-06 02:28:00,
2013-02-05 20:33:00,-0.6,-16.8,29.06,NNE,17,0.0,0.0,45,0.00,,CLR,0.00,VWS V14.01,2013-02-06 02:33:00,
2013-02-05 20:38:00,-0.8,-17.0,29.06,NNE,17,0.0,0.0,45,0.00,,CLR,0.00,VWS V14.01,2013-02-06 02:38:00,
2013-02-05 20:43:00,-1.1,-17.3,29.06,NNE,17,0.0,0.0,45,0.00,,CLR,0.00,VWS V14.01,2013-02-06 02:43:00,
2013-02-05 20:48:00,-1.3,-17.5,29.06,NNE,17,0.0,0.0,45,0.00,,CLR,0.00,VWS V14.01,2013-02-06 02:48:00,
2013-02-05 20:53:00,-1.7,-17.8,29.06,NNE,17,0.0,0.0,45,0.00,,CLR,0.00,VWS V14.01,2013-02-06 02:53:00,
2013-02-05 20:58:00,-1.9,-18.0,29.06,NNE,17,0.0,0.0,45,0.00,,CLR,0.00,VWS V14.01,2013-02-06 02:58:00,
2013-02-05 21:03:00,-2.0,-18.2,29.09,NNE,17,0.0,0.0,45,0.00,,CLR,0.00,VWS V14.01,2013-02-06 03:03:00,
2013-02-05 21:08:00,-2.0,-18.2,29.09,NNE,17,0.0,0.0,45,0.00,,CLR,0.00,VWS V14.01,2013-02-06 03:08:00,
2013-02-05 21:13:00,-2.4,-18.5,29.09,NNE,17,0.0,0.0,45,0.00,,CLR,0.00,VWS V14.01,2013-02-06 03:13:00,
2013-02-05 21:18:00,-2.8,-18.8,29.09,NNE,17,0.0,0.0,45,0.00,,CLR,0.00,VWS V14.01,2013-02-06 03:18:00,
2013-02-05 21:23:00,-2.9,-19.0,29.09,NNE,17,0.0,0.0,45,0.00,,CLR,0.00,VWS V14.01,2013-02-06 03:23:00,
2013-02-05 21:28:00,-3.3,-19.3,29.09,NNE,17,0.0,0.0,45,0.00,,CLR,0.00,VWS V14.01,2013-02-06 03:28:00,
2013-02-05 21:33:00,-3.5,-19.5,29.09,NNE,17,0.0,0.0,45,0.00,,CLR,0.00,VWS V14.01,2013-02-06 03:33:00,
2013-02-05 21:38:00,-3.7,-19.7,29.09,NNE,17,0.0,0.0,45,0.00,,CLR,0.00,VWS V14.01,2013-02-06 03:38:00,
2013-02-05 21:43:00,-3.8,-19.8,29.09,NNE,17,0.0,0.0,45,0.00,,CLR,0.00,VWS V14.01,2013-02-06 03:43:00,
2013-02-05 21:48:00,-4.2,-20.2,29.09,NNE,17,0.0,0.0,45,0.00,,CLR,0.00,VWS V14.01,2013-02-06 03:48:00,
2013-02-05 21:53:00,-4.6,-20.5,29.09,NNE,17,0.0,0.0,45,0.00,,CLR,0.00,VWS V14.01,2013-02-06 03:53:00,
2013-02-05 21:58:00,-4.7,-20.6,29.09,NNE,17,0.0,0.0,45,0.00,,CLR,0.00,VWS V14.01,2013-02-06 03:58:00,
2013-02-05 22:03:00,-5.1,-21.0,29.09,NNE,17,0.0,0.0,45,0.00,,CLR,0.00,VWS V14.01,2013-02-06 04:03:00,
2013-02-05 22:08:00,-5.3,-21.1,29.09,NNE,17,0.0,0.0,45,0.00,,CLR,0.00,VWS V14.01,2013-02-06 04:08:00,
2013-02-05 22:13:00,-5.5,-21.3,29.09,NNE,17,0.0,0.0,45,0.00,,CLR,0.00,VWS V14.01,2013-02-06 04:13:00,
2013-02-05 22:18:00,-5.6,-21.5,29.09,NNE,17,0.0,0.0,45,0.00,,CLR,0.00,VWS V14.01,2013-02-06 04:18:00,
2013-02-05 22:23:00,-5.8,-21.6,29.09,NNE,17,0.0,0.0,45,0.00,,CLR,0.00,VWS V14.01,2013-02-06 04:23:00,
2013-02-05 22:28:00,-5.5,-21.3,29.09,NNE,17,0.0,0.0,45,0.00,,CLR,0.00,VWS V14.01,2013-02-06 04:28:00,
2013-02-05 22:33:00,-5.5,-21.3,29.09,NNE,17,0.0,0.0,45,0.00,,CLR,0.00,VWS V14.01,2013-02-06 04:33:00,
2013-02-05 22:38:00,-5.6,-21.5,29.09,NNE,17,0.0,0.0,45,0.00,,CLR,0.00,VWS V14.01,2013-02-06 04:38:00,
2013-02-05 22:44:00,-6.0,-21.8,29.09,NNE,17,0.0,0.0,45,0.00,,CLR,0.00,VWS V14.01,2013-02-06 04:44:00,
2013-02-05 22:49:00,-6.4,-22.1,29.09,NNE,17,0.0,0.0,45,0.00,,CLR,0.00,VWS V14.01,2013-02-06 04:49:00,
2013-02-05 22:54:00,-6.4,-22.1,29.09,NNE,17,0.0,0.0,45,0.00,,CLR,0.00,VWS V14.01,2013-02-06 04:54:00,
2013-02-05 22:59:00,-6.5,-22.3,29.09,NNE,17,0.0,0.0,45,0.00,,CLR,0.00,VWS V14.01,2013-02-06 04:59:00,
2013-02-05 23:00:00,-6.5,-22.3,29.09,NNE,17,0.0,0.0,45,0.00,,CLR,0.00,VWS V14.01,2013-02-06 05:00:00,
2013-02-05 23:05:00,-6.5,-22.3,29.12,NNE,17,0.0,0.0,45,0.00,,,0.00,VWS V14.01,2013-02-06 05:05:00,
2013-02-05 23:10:00,-6.4,-22.1,29.12,NNE,17,0.0,0.0,45,0.00,,,0.00,VWS V14.01,2013-02-06 05:10:00,
2013-02-05 23:15:00,-6.4,-22.1,29.12,NNE,17,0.0,0.0,45,0.00,,,0.00,VWS V14.01,2013-02-06 05:15:00,
2013-02-05 23:20:00,-6.5,-22.3,29.12,NNE,17,0.0,0.0,45,0.00,,,0.00,VWS V14.01,2013-02-06 05:20:00,
2013-02-05 23:25:00,-6.9,-22.6,29.12,NNE,17,0.0,0.0,45,0.00,,,0.00,VWS V14.01,2013-02-06 05:25:00,
2013-02-05 23:30:00,-7.1,-22.8,29.12,NNE,17,0.0,0.0,45,0.00,,,0.00,VWS V14.01,2013-02-06 05:30:00,
2013-02-05 23:35:00,-7.3,-23.0,29.09,NNE,17,0.0,0.0,45,0.00,,,0.00,VWS V14.01,2013-02-06 05:35:00,
2013-02-05 23:40:00,-7.4,-23.1,29.09,NNE,17,0.0,0.0,45,0.00,,,0.00,VWS V14.01,2013-02-06 05:40:00,
2013-02-05 23:45:00,-7.6,-23.3,29.09,NNE,17,0.0,0.0,45,0.00,,,0.00,VWS V14.01,2013-02-06 05:45:00,
2013-02-05 23:50:00,-7.6,-23.3,29.12,NNE,17,0.0,0.0,45,0.00,,,0.00,VWS V14.01,2013-02-06 05:50:00,
2013-02-05 23:55:00,-8.0,-23.6,29.12,NNE,17,0.0,0.0,45,0.00,,,0.00,VWS V14.01,2013-02-06 05:55:00,